TimeCDT,TemperatureF,Dew PointF,Humidity,Sea Level PressureIn,VisibilityMPH,Wind Direction,Wind SpeedMPH,Gust SpeedMPH,PrecipitationIn,Events,Conditions,WindDirDegrees,DateUTC
12:15 AM,29.8,27.9,92,29.74,7.0,NW,18.4,24.2,N/A,,Overcast,310,2013-03-11 05:15:00
12:35 AM,29.7,27.5,92,29.74,7.0,NW,16.1,24.2,N/A,,Overcast,310,2013-03-11 05:35:00
12:55 AM,29.3,27.1,92,29.74,7.0,WNW,16.1,-,N/A,,Overcast,300,2013-03-11 05:55:00
1:15 AM,28.8,26.4,91,29.75,7.0,WNW,16.1,24.2,N/A,,Overcast,300,2013-03-11 06:15:00
1:35 AM,28.4,26.1,91,29.74,7.0,NW,16.1,21.9,N/A,,Overcast,310,2013-03-11 06:35:00
1:55 AM,28.0,25.7,91,29.74,7.0,WNW,16.1,-,N/A,,Overcast,300,2013-03-11 06:55:00
2:15 AM,28.0,25.7,91,29.74,7.0,WNW,15.0,18.4,N/A,,Overcast,300,2013-03-11 07:15:00
2:35 AM,28.0,25.7,91,29.74,7.0,NW,15.0,-,N/A,,Overcast,310,2013-03-11 07:35:00
2:55 AM,28.0,25.7,91,29.74,7.0,NW,16.1,-,N/A,,Overcast,310,2013-03-11 07:55:00
3:15 AM,27.9,25.3,90,29.74,7.0,NW,13.8,24.2,N/A,,Overcast,310,2013-03-11 08:15:00
3:35 AM,27.5,25.3,92,29.73,7.0,NW,15.0,20.7,N/A,,Overcast,310,2013-03-11 08:35:00
3:55 AM,27.3,24.8,90,29.72,7.0,NW,13.8,23.0,N/A,,Overcast,310,2013-03-11 08:55:00
4:15 AM,27.1,24.4,90,29.72,10.0,NW,13.8,21.9,N/A,,Overcast,310,2013-03-11 09:15:00
4:35 AM,26.6,24.4,92,29.72,5.0,NW,15.0,23.0,N/A,,Overcast,310,2013-03-11 09:35:00
4:55 AM,26.4,23.9,90,29.72,5.0,NW,18.4,-,N/A,Snow,Light Snow,310,2013-03-11 09:55:00
5:15 AM,26.4,23.9,90,29.72,7.0,NW,15.0,19.6,N/A,Snow,Light Snow,310,2013-03-11 10:15:00
5:35 AM,26.2,23.5,90,29.73,10.0,WNW,15.0,21.9,N/A,,Overcast,300,2013-03-11 10:35:00
5:55 AM,25.9,23.4,90,29.74,7.0,WNW,13.8,-,N/A,,Overcast,300,2013-03-11 10:55:00
6:15 AM,25.7,23.0,89,29.74,7.0,WNW,15.0,19.6,N/A,,Overcast,300,2013-03-11 11:15:00
6:35 AM,25.7,23.0,89,29.75,7.0,NW,15.0,20.7,N/A,,Overcast,310,2013-03-11 11:35:00
6:55 AM,25.7,23.0,89,29.75,7.0,NW,12.7,19.6,N/A,,Overcast,310,2013-03-11 11:55:00
7:15 AM,25.7,23.0,89,29.76,7.0,NW,16.1,-,N/A,,Overcast,310,2013-03-11 12:15:00
7:35 AM,25.3,22.5,89,29.77,10.0,WNW,16.1,-,N/A,,Overcast,300,2013-03-11 12:35:00
7:55 AM,25.3,22.3,88,29.78,10.0,WNW,15.0,21.9,N/A,,Overcast,300,2013-03-11 12:55:00
8:15 AM,25.3,22.5,89,29.78,4.0,WNW,15.0,19.6,N/A,,Overcast,300,2013-03-11 13:15:00
8:35 AM,25.5,22.1,87,29.79,7.0,NW,12.7,20.7,N/A,,Overcast,310,2013-03-11 13:35:00
8:55 AM,25.3,22.1,87,29.79,7.0,NW,16.1,-,N/A,,Overcast,310,2013-03-11 13:55:00
9:15 AM,25.7,22.6,88,29.79,7.0,WNW,15.0,-,N/A,,Overcast,300,2013-03-11 14:15:00
9:35 AM,25.9,23.0,89,29.79,5.0,WNW,15.0,-,N/A,Snow,Light Snow,300,2013-03-11 14:35:00
9:55 AM,26.2,23.0,88,29.79,5.0,WNW,17.3,23.0,N/A,Snow,Light Snow,300,2013-03-11 14:55:00
10:15 AM,26.6,23.5,88,29.79,7.0,WNW,13.8,19.6,N/A,,Overcast,300,2013-03-11 15:15:00
10:35 AM,26.4,23.0,87,29.79,7.0,NW,17.3,-,N/A,,Overcast,310,2013-03-11 15:35:00
10:55 AM,26.6,23.2,87,29.79,7.0,WNW,16.1,23.0,N/A,,Overcast,300,2013-03-11 15:55:00
11:15 AM,27.0,23.4,86,29.80,10.0,WNW,15.0,-,N/A,,Overcast,300,2013-03-11 16:15:00
11:35 AM,27.1,23.5,86,29.81,7.0,WNW,18.4,24.2,N/A,,Overcast,300,2013-03-11 16:35:00
11:55 AM,27.0,23.5,87,29.81,7.0,WNW,19.6,23.0,N/A,,Overcast,290,2013-03-11 16:55:00
12:15 PM,27.0,23.5,87,29.82,7.0,WNW,12.7,-,N/A,,Overcast,290,2013-03-11 17:15:00
12:35 PM,26.8,23.2,86,29.82,7.0,WNW,17.3,21.9,N/A,,Overcast,290,2013-03-11 17:35:00
12:55 PM,27.0,23.2,86,29.82,7.0,WNW,12.7,23.0,N/A,,Overcast,300,2013-03-11 17:55:00
1:15 PM,27.3,23.4,85,29.82,10.0,West,16.1,-,N/A,,Overcast,280,2013-03-11 18:15:00
1:35 PM,27.1,23.0,84,29.82,7.0,WNW,17.3,-,N/A,,Overcast,290,2013-03-11 18:35:00
1:55 PM,27.5,23.4,84,29.82,7.0,WNW,15.0,20.7,N/A,,Overcast,290,2013-03-11 18:55:00
2:15 PM,27.7,23.5,84,29.83,7.0,West,13.8,21.9,N/A,,Overcast,280,2013-03-11 19:15:00
2:35 PM,28.0,23.4,83,29.83,10.0,West,15.0,20.7,N/A,,Overcast,280,2013-03-11 19:35:00
2:55 PM,27.7,22.8,82,29.82,7.0,West,16.1,-,N/A,,Overcast,280,2013-03-11 19:55:00
3:15 PM,28.2,22.8,80,29.82,10.0,WNW,15.0,-,N/A,,Overcast,290,2013-03-11 20:15:00
3:55 PM,28.2,23.0,81,29.83,7.0,West,11.5,-,N/A,,Overcast,270,2013-03-11 20:55:00
4:15 PM,28.8,23.0,79,29.82,10.0,West,12.7,18.4,N/A,,Overcast,260,2013-03-11 21:15:00
4:35 PM,28.4,22.3,78,29.83,10.0,West,15.0,-,N/A,,Overcast,270,2013-03-11 21:35:00
4:55 PM,28.0,21.6,77,29.84,10.0,West,17.3,-,N/A,,Overcast,270,2013-03-11 21:55:00
5:15 PM,27.3,21.2,78,29.85,10.0,West,15.0,-,N/A,,Overcast,280,2013-03-11 22:15:00
5:35 PM,27.0,20.1,75,29.85,10.0,WNW,17.3,-,N/A,,Overcast,290,2013-03-11 22:35:00
5:55 PM,26.8,19.8,75,29.86,7.0,West,17.3,21.9,N/A,,Overcast,270,2013-03-11 22:55:00
6:15 PM,26.6,19.9,76,29.86,7.0,WNW,16.1,-,N/A,,Mostly Cloudy,300,2013-03-11 23:15:00
6:35 PM,26.4,19.9,77,29.87,10.0,WNW,13.8,18.4,N/A,,Mostly Cloudy,300,2013-03-11 23:35:00
6:55 PM,26.1,19.6,76,29.88,10.0,NW,10.4,-,N/A,,Mostly Cloudy,310,2013-03-11 23:55:00
7:15 PM,24.8,19.0,79,29.89,10.0,WNW,9.2,-,N/A,,Scattered Clouds,300,2013-03-12 00:15:00
7:35 PM,24.3,18.9,80,29.90,10.0,West,9.2,-,N/A,,Scattered Clouds,280,2013-03-12 00:35:00
7:55 PM,23.7,18.9,82,29.91,10.0,WNW,8.1,-,N/A,,Scattered Clouds,290,2013-03-12 00:55:00
8:15 PM,23.9,18.5,80,29.92,10.0,WNW,10.4,-,N/A,,Clear,290,2013-03-12 01:15:00
8:35 PM,23.9,19.0,82,29.93,10.0,West,6.9,-,N/A,,Scattered Clouds,280,2013-03-12 01:35:00
8:55 PM,24.8,19.8,81,29.92,10.0,West,8.1,-,N/A,,Overcast,270,2013-03-12 01:55:00
9:15 PM,24.8,19.8,81,29.92,10.0,West,6.9,-,N/A,,Overcast,280,2013-03-12 02:15:00
9:35 PM,25.3,20.5,82,29.91,10.0,West,6.9,-,N/A,,Overcast,260,2013-03-12 02:35:00
9:55 PM,25.7,20.8,82,29.93,10.0,West,9.2,-,N/A,,Overcast,260,2013-03-12 02:55:00
10:15 PM,24.8,20.3,83,29.93,10.0,West,6.9,-,N/A,,Scattered Clouds,280,2013-03-12 03:15:00
10:35 PM,24.1,20.1,85,29.94,10.0,West,6.9,-,N/A,,Scattered Clouds,260,2013-03-12 03:35:00
10:55 PM,25.2,21.0,84,29.95,10.0,West,8.1,-,N/A,,Mostly Cloudy,260,2013-03-12 03:55:00
11:15 PM,24.8,20.3,83,29.95,10.0,West,6.9,-,N/A,,Mostly Cloudy,280,2013-03-12 04:15:00
11:35 PM,24.3,19.9,84,29.94,10.0,West,6.9,-,N/A,,Scattered Clouds,270,2013-03-12 04:35:00
11:55 PM,23.7,19.4,84,29.95,10.0,West,8.1,-,N/A,,Clear,260,2013-03-12 04:55:00